Orient Glider Airport

Jump to: basic info | weather | comments

Related pages: nearby airports | nearby navaids | notams | map

Basic information (top)

Codes: FAOI
Location: lon -26.039400, lat 27.595600, elev 5,102 ft / 1,555 m msl
Status: small_airport

Weather (top)

Current conditions for Lanseria Airport 19nm (35km) ENE (rec'd 2014/07/22 07:00Z):

FALA 220700Z 00000KT 8000 NSC 09/02 Q1033 NOSIG

Airport forecast for Lanseria Airport 19nm (35km) ENE (rec'd 2014/07/22 00:00Z):

TAF FALA 212200Z 2200/2224 VRB03KT CAVOK PROB30 
      TEMPO 2203/2206 5000 BR NSC 
      BECMG 2208/2210 33007KT 
      BECMG 2216/2218 VRB03KT TX20/2212ZTN03/2205Z

Latest comments (top)

Runway Orientation and Airfield Frequency: Runway 36/18 (Main) Runway 11/29 Airfi ... [read]

More... (top)

See also NOTAMs and nearby airports and navaids, or visit the Orient Glider Airport page at the main OurAirports website..